Flag for U.S.A. Weather past 2 weeks in Waterbury, Connecticut, U.S.A.

Now
72 °F

Low clouds.


Feels Like: 71 °F
Forecast: 69 / 82 °F
Wind: No wind

Location: Oxford

Current Time: Sep 1, 2014 at 5:09:29 AM

Latest Report: Sep 1, 2014 at 4:35 AM


Visibility: 3 mi

Pressure: 30.02 "Hg

Humidity: 83%

Dew point: 66 °F

Location of WaterburyLocation

Historic Weather in Waterbury — Graph

°F

Waterbury temperature yesterday

Maximum temperature yesterday: 82 °F (at 3:45 PM)
Minimum temperature yesterday: 68 °F (at 12:15 AM)
Average temperature yesterday: 72 °F

Past Weeks' High & Low Weather Summary

 TemperatureHumidityPressure
High86 °F (Aug 27, 2:52 PM)94% (Aug 20, 4:15 AM)30.31 "Hg (Aug 20, 4:15 AM)
Low52 °F (Aug 19, 4:35 AM)40% (Aug 26, 2:52 PM)29.85 "Hg (Aug 17, 2:45 PM)
Average66 °F75%30.08 "Hg
* Reported Aug 17 3:15 AM — Sep 1 3:55 AM, Waterbury, Weather by CustomWeather, © 2014

Note: Actual official high and low records may vary slightly from our data, if they occured in-between our weather recording intervals... More about our weather records

Advertising

Waterbury weather history for previous 24 hours

 ConditionsComfort  
Time TempWeatherWind HumidityBarometerVisibility
3:55 AM
Sep 1
72 °FLow clouds.No wind83%30.01 "Hg2 mi
3:35 AM70 °FLow clouds.No wind88%30.01 "Hg2 mi
3:15 AM70 °FLow clouds.No wind83%30.01 "Hg1 mi
2:55 AM66 °FLow clouds.No wind94%30.02 "Hg1 mi
2:35 AM70 °FClear.No wind88%30.01 "Hg2 mi
2:15 AM72 °FClear.No wind83%30.02 "Hg3 mi
1:55 AM70 °FPassing clouds.No wind88%30.02 "Hg2 mi
1:35 AM70 °FLow clouds.No wind88%30.03 "Hg0 mi
1:15 AM70 °FLow clouds.No wind88%30.02 "Hg1 mi
12:55 AM72 °FPassing clouds.No wind83%30.03 "Hg3 mi
12:35 AM70 °FPartly cloudy.3 mph88%30.02 "Hg1 mi
12:15 AM70 °FPassing clouds.No wind88%30.02 "Hg2 mi
11:55 PM
Aug 31
72 °FClear.No wind83%30.02 "Hg6 mi
11:35 PM72 °FClear.No wind83%30.03 "Hg5 mi
11:15 PM72 °FPassing clouds.3 mph83%30.03 "Hg10 mi
10:55 PM72 °FPassing clouds.No wind83%30.03 "Hg5 mi
10:35 PM72 °FPassing clouds.No wind83%30.03 "Hg4 mi
10:15 PM72 °FPassing clouds.No wind83%30.02 "Hg10 mi
9:55 PM72 °FPassing clouds.No wind83%30.03 "Hg8 mi
9:35 PM72 °FClear.3 mph83%30.03 "Hg8 mi
9:15 PM72 °FPassing clouds.5 mph83%30.03 "Hg9 mi
8:55 PM72 °FOvercast.No wind83%30.03 "Hg10 mi
6:45 PM73 °FFog.5 mph89%30.02 "Hg6 mi
6:22 PM73 °FFog.No wind89%30.03 "Hg4 mi
5:45 PM73 °FThunderstorms. Fog.5 mph44%30.03 "Hg2 mi
5:32 PM73 °FThunderstorms. Fog.No wind78%30.03 "Hg6 mi
4:45 PM81 °FBroken clouds.5 mph74%30.01 "Hg7 mi
3:45 PM82 °FScattered clouds.7 mph66%30.02 "Hg10 mi
2:45 PM81 °FBroken clouds.5 mph70%30.05 "Hg10 mi
1:45 PM77 °FMostly cloudy.5 mph79%30.08 "Hg10 mi
12:52 PM77 °FOvercast.8 mph79%30.09 "Hg10 mi
11:52 AM73 °FOvercast.6 mph83%30.11 "Hg10 mi
10:52 AM73 °FOvercast.8 mph78%30.12 "Hg10 mi
9:52 AM72 °FOvercast.6 mph83%30.13 "Hg10 mi
8:52 AM70 °FOvercast.8 mph83%30.14 "Hg10 mi
6:52 AM70 °FOvercast.7 mph83%30.14 "Hg10 mi
5:52 AM70 °FOvercast.No wind83%30.14 "Hg10 mi
5:35 AM70 °FOvercast.3 mph83%30.14 "Hg10 mi
5:15 AM70 °FOvercast.6 mph83%30.15 "Hg10 mi
Weather by CustomWeather, © 2014

See weather overviewHow to use our weather pages